DO-64
1 32789U 08021G 19325.71207627 .00000904 00000-0 63875-4 0 9998
2 32789 97.4466 10.5392 0010894 316.6401 43.3970 15.07269287630462
CO-66
1 32791U 08021J 19325.01254615 .00000473 00000-0 53248-4 0 9997
2 32791 97.5323 323.5741 0014854 81.4363 278.8538 14.90914244627256
RS-30
1 32953U 08025A 19325.70279752 .00000021 00000-0 75656-4 0 9992
2 32953 82.5070 47.7365 0020166 147.8159 212.4164 12.43092293521696
PRISM
1 33493U 09002B 19325.23103822 .00000786 00000-0 74081-4 0 9999
2 33493 98.1273 252.1078 0016114 33.0885 327.1340 14.96814275588412
NOAA-19
1 33591U 09005A 19325.47040278 .00000023 00000-0 37924-4 0 9991
2 33591 99.1905 320.4440 0013222 304.2955 55.6963 14.12384008555898
TISAT-1
1 36799U 10035E 19325.02651069 .00000224 00000-0 28671-4 0 9998
2 36799 98.1737 122.5356 0011093 299.4960 60.5150 14.91206836507917
JUGNU
1 37839U 11058B 19325.70939833 .00000317 00000-0 27167-4 0 9995
2 37839 19.9606 108.6529 0018884 247.2850 231.4305 14.12664806419348
SRMSAT
1 37841U 11058D 19325.83887932 .00000294 00000-0 16613-4 0 9992
2 37841 19.9700 167.8790 0011906 111.8870 355.3496 14.10643680418766
AO-71
1 37854U 11061E 19325.49696716 .00001881 00000-0 10259-3 0 9992
2 37854 101.7108 303.8810 0159759 323.0059 36.0221 15.06797688440456
HRBE
1 37855U 11061F 19325.50567020 .00001826 00000-0 98120-4 0 9993
2 37855 101.7231 301.1494 0172563 334.8665 24.4220 15.05802062440221
ALMASAT-1
1 38078U 12006B 19325.15793750 .00054078 50176-5 21738-3 0 9994
2 38078 69.4193 178.0904 0117790 16.9112 120.4344 15.76494460421869
HORYU-2
1 38340U 12025D 19325.11569569 .00000176 00000-0 33744-4 0 9999
2 38340 98.3116 8.2278 0011201 355.3639 4.7464 14.75776807404087
RS-40
1 38735U 12041C 19325.42815557 .00000002 00000-0 -55689-4 0 9991
2 38735 82.4723 131.0042 0016380 256.5728 103.3539 12.42579664331892
BEESAT-3
1 39135U 13015F 19325.26386270 .00001008 00000-0 58757-4 0 9990
2 39135 64.8670 256.8022 0040594 282.3353 77.3230 15.17743274363855
BEESAT-2
1 39136U 13015G 19325.82175305 .00001122 00000-0 65722-4 0 9995
2 39136 64.8690 259.2832 0030373 287.3939 72.3866 15.17159883363850
ZACUBE-1
1 39417U 13066B 19325.01822118 .00000208 00000-0 32543-4 0 9994
2 39417 97.5617 329.7863 0057581 244.0886 115.4386 14.81180521324038
TRITON-1
1 39427U 13066M 19325.14917481 .00000247 00000-0 47114-4 0 9990
2 39427 97.6971 293.0884 0114511 28.4123 332.3262 14.67908352321140
GOMX-1
1 39430U 13066Q 19325.75262713 .00000170 00000-0 39379-4 0 9991
2 39430 97.7661 272.1768 0152016 121.8790 239.7318 14.59310745319367
LO-74
1 39440U 13066AA 19325.21065446 .00000234 00000-0 39674-4 0 9996
2 39440 97.6127 314.5487 0078947 300.3497 58.9923 14.75919296322913
AO-73
1 39444U 13066AE 19325.67513826 .00000279 00000-0 40693-4 0 9992
2 39444 97.5583 332.4943 0056812 234.9149 124.6731 14.82013256323032
SPROUT
1 39770U 14029E 19325.36634036 .00000545 00000-0 66151-4 0 9990
2 39770 97.8922 67.7177 0007923 299.3094 60.7314 14.87509057297978
DUCHIFAT-1
1 40021U 14033M 19325.74365836 .00000537 00000-0 60490-4 0 9998
2 40021 97.9294 250.8789 0011501 255.0537 104.9408 14.90741571294799
NANOSATCBR1
1 40024U 14033Q 19325.24899160 .00000302 00000-0 37288-4 0 9997
2 40024 97.9170 247.3926 0010761 261.1384 98.8615 14.89937751294600
EO-79
1 40025U 14033R 19325.00270849 .00000301 00000-0 38002-4 0 9993
2 40025 97.9074 244.4281 0011023 269.2165 90.7789 14.89023199294430
DTUSAT-2
1 40030U 14033W 19325.24324149 .00000257 00000-0 33583-4 0 9997
2 40030 97.8977 242.5561 0010445 263.6870 96.3157 14.88609040294395
EO-80
1 40032U 14033Y 19325.25466983 .00000277 00000-0 35789-4 0 9995
2 40032 97.8985 242.5688 0010414 264.5419 95.4610 14.88554299294389
ANTELSAT
1 40034U 14033AA 19325.21364381 .00000213 00000-0 39026-4 0 9990
2 40034 97.7373 185.6010 0057808 315.6734 43.9854 14.74166127291584
VELOX-1
1 40057U 14034E 19325.75617780 .00000294 00000-0 48610-4 0 9997
2 40057 98.2544 92.3933 0012148 94.0619 266.1978 14.77750494290811
DAURIA DX 1
1 40071U 14037C 19325.86405076 .00000068 00000-0 16251-4 0 9996
2 40071 98.4436 127.9118 0009603 85.4659 274.7655 14.81309898290370
UKUBE-1
1 40074U 14037F 19325.84674892 .00000239 00000-0 35786-4 0 9995
2 40074 98.4493 136.8285 0005898 74.9739 285.2163 14.84137983290811
HODOYOSHI-1
1 40299U 14070B 19325.85031413 .00000455 00000-0 21936-4 0 9990
2 40299 97.3380 42.2809 0012100 205.9863 291.1247 15.23521363280049
CHUBUSAT-1
1 40300U 14070C 19325.79812030 .00000477 00000-0 23665-4 0 9993
2 40300 97.3124 35.9237 0018757 225.4351 275.0311 15.22255558279764
QSAT-EOS
1 40301U 14070D 19325.83239495 .00001396 00000-0 56113-4 0 9992
2 40301 97.3150 39.8720 0024841 203.6687 291.3413 15.26328767280106
FIREBIRD FU3
1 40377U 15003B 19325.27638258 .00002176 00000-0 88440-4 0 9995
2 40377 99.1190 337.5006 0124688 292.2659 66.5386 15.19315560265542
FIREBIRD FU4
1 40378U 15003C 19325.65777450 .00002226 00000-0 90248-4 0 9991
2 40378 99.1190 338.0460 0124914 290.8683 67.9209 15.19331266265603
GRIFEX
1 40379U 15003D 19325.66557804 .00001782 00000-0 79149-4 0 9995
2 40379 99.1222 331.1680 0133511 312.0764 46.9168 15.15864455265213
NO-84
1 40654U 15025D 19324.27336662 .00010374 00000 0 13690-3 0 7800
2 40654 54.9876 186.4129 0129064 5.7278 354.5196 15.49830224136395
DEORBITSAIL
1 40719U 15032E 19325.22351714 .00000379 00000-0 61099-4 0 9995
2 40719 97.8899 213.7304 0016520 159.4222 200.7657 14.76845164235218
NUDT-PHONESAT
1 40900U 15049B 19325.87837631 .00001845 00000-0 80656-4 0 9992
2 40900 97.4364 333.7206 0012759 4.6290 67.7890 15.23297090231435
XW-2A
1 40903U 15049E 19325.84378150 .00001418 00000-0 34839-4 0 9996
2 40903 97.3189 9.3632 0012159 305.6212 163.9702 15.42336019234310
XW-2C
1 40906U 15049H 19325.73422618 .00000710 00000-0 40518-4 0 9991
2 40906 97.4726 325.2807 0015474 24.3179 86.6720 15.15830782230633
XW-2D
1 40907U 15049J 19325.81790667 .00000482 00000-0 28512-4 0 9999
2 40907 97.4707 325.0468 0014817 21.0666 56.9243 15.16030924230663
LILACSAT-2
1 40908U 15049K 19325.85075351 .00000380 00000-0 24541-4 0 9995
2 40908 97.4848 323.7201 0016663 28.1958 56.6648 15.13896077230430
XW-2E
1 40909U 15049L 19325.87882870 .00000929 00000-0 48893-4 0 9995
2 40909 97.4630 328.2124 0013890 15.6717 68.7627 15.18033222230887
XW-2F
1 40910U 15049M 19325.82709427 .00000753 00000-0 40803-4 0 9996
2 40910 97.4660 327.2995 0014975 12.9759 65.7211 15.17543920230693
XW-2B
1 40911U 15049N 19325.85909103 .00000789 00000-0 44531-4 0 9994
2 40911 97.4724 325.7627 0014751 21.9503 62.8347 15.15962389230565
DCBB
1 40912U 15049P 19325.81670753 .00000991 00000-0 49289-4 0 9997
2 40912 97.4504 331.1762 0014788 354.0450 82.9470 15.19888589231029
TW-1C
1 40926U 15051B 19325.74533771 .00011933 00000-0 15425-3 0 9997
2 40926 97.1163 11.8609 0008532 140.8641 314.6080 15.59045154234445
TW-1A
1 40928U 15051D 19325.78437376 .00002131 00000-0 52652-4 0 9991
2 40928 97.1314 353.5837 0009554 220.4184 256.2394 15.41547424233217
IO-86
1 40931U 15052B 19324.69785557 -.00020420 00000-0 -29507-2 0 9996
2 40931 5.9963 31.2247 0013118 192.9224 166.9491 14.76583141224210
LQSat
1 40958U 15057A 19325.24962188 .00000003 00000-0 80710-5 0 9998
2 40958 97.8823 30.1044 0019570 101.5712 258.7694 14.73096983221709
AO-85
1 40967U 15058D 19324.48101002 .00000217 00000 0 43005-4 0 8714
2 40967 64.7766 48.3466 0181490 151.5233 209.5936 14.76030790130586
